sat.trackr.live / text

‹ back to catalog

YAOGAN-35 01A

NORAD 49390 · 2021-101A

PAYLOAD ACTIVE UNKNOWN

§ Identity

Operator
Country
PRC
Launch date
2021-11-06
Launch site
XICLF
Launch vehicle
Mass (kg)
RCS (m²)

External: N2YO · Heavens-Above · Gunter

§ Orbital elements

Epoch: 2026-05-25T05:03:18.491616Z

Period
94.35 min
Inclination
34.9905°
Eccentricity
0.0005562
Mean motion
15.26214804 rev/d
Perigee alt
483.3 km
Apogee alt
491.0 km
Semi-major
6,865.3 km
B*
3.1591e-4
RAAN
61.1936°
Arg perigee
182.5412°
Mean anomaly
177.5276°
Rev number
25,336

§ Raw data

YAOGAN-35 01A1 49390U 21101A   26145.21063069  .00008355  00000+0  31591-3 0  99972 49390  34.9905  61.1936 0005562 182.5412 177.5276 15.26214804253361

JSON: /api/v1/satellites/49390 · /tle

For live sub-satellite position, see the globe view (requires WebGL).

§ Visibility from observer

Set your observer location to see the next 7 days of passes ≥ 10°. The values pass through the URL so the page stays shareable.

No JS? Fill the form by hand. The geolocation button needs JavaScript.